TimeEDT,TemperatureF,Dew PointF,Humidity,Sea Level PressureIn,VisibilityMPH,Wind Direction,Wind SpeedMPH,Gust SpeedMPH,PrecipitationIn,Events,Conditions,WindDirDegrees,DateUTC
12:48 AM,51.8,51.8,100,30.20,10.0,Calm,Calm,-,N/A,,Light Drizzle,0,2013-04-29 04:48:00
12:55 AM,52.9,50.9,93,30.20,10.0,Calm,Calm,-,0.00,,Light Drizzle,0,2013-04-29 04:55:00
12:58 AM,53.6,51.8,94,30.20,10.0,Calm,Calm,-,N/A,,Overcast,0,2013-04-29 04:58:00
1:09 AM,53.6,50.0,88,30.20,10.0,Calm,Calm,-,N/A,Rain,Light Rain,0,2013-04-29 05:09:00
1:55 AM,54.0,53.8,99,30.18,10.0,East,3.5,-,0.00,Rain,Light Rain,90,2013-04-29 05:55:00
2:55 AM,54.3,54.0,99,30.17,10.0,SE,3.5,-,0.01,Rain,Light Rain,130,2013-04-29 06:55:00
3:51 AM,55.4,53.6,94,30.16,8.0,SE,6.9,-,N/A,Rain,Light Rain,130,2013-04-29 07:51:00
3:55 AM,54.5,54.1,99,30.16,7.0,SE,5.8,-,0.03,Rain,Light Rain,130,2013-04-29 07:55:00
3:58 AM,53.6,53.6,100,30.16,6.0,SE,8.1,-,N/A,Rain,Light Rain,130,2013-04-29 07:58:00
4:08 AM,53.6,53.6,100,30.16,5.0,SE,8.1,-,N/A,Rain,Light Rain,130,2013-04-29 08:08:00
4:13 AM,53.6,53.6,100,30.16,5.0,SE,6.9,-,N/A,Rain,Light Rain,130,2013-04-29 08:13:00
4:16 AM,53.6,53.6,100,30.16,5.0,SE,6.9,-,N/A,Rain,Light Rain,130,2013-04-29 08:16:00
4:18 AM,53.6,53.6,100,30.16,5.0,SE,8.1,-,N/A,Rain,Light Rain,140,2013-04-29 08:18:00
4:22 AM,53.6,53.6,100,30.16,5.0,SE,8.1,-,N/A,Rain,Light Rain,140,2013-04-29 08:22:00
4:23 AM,53.6,53.6,100,30.16,5.0,SE,6.9,-,N/A,Rain,Light Rain,130,2013-04-29 08:23:00
4:24 AM,53.6,53.6,100,30.16,5.0,SE,6.9,-,N/A,Rain,Light Rain,130,2013-04-29 08:24:00
4:50 AM,53.6,53.6,100,30.16,7.0,SE,5.8,-,N/A,Rain,Light Rain,130,2013-04-29 08:50:00
4:52 AM,53.6,53.6,100,30.16,7.0,SE,5.8,-,N/A,Rain,Light Rain,130,2013-04-29 08:52:00
4:55 AM,54.3,54.3,100,30.16,7.0,ESE,5.8,-,0.09,Rain,Light Rain,120,2013-04-29 08:55:00
4:58 AM,53.6,53.6,100,30.16,7.0,ESE,4.6,-,N/A,Rain,Light Rain,120,2013-04-29 08:58:00
5:55 AM,54.7,54.7,100,30.16,6.0,ESE,4.6,-,0.06,Rain,Light Rain,110,2013-04-29 09:55:00
6:05 AM,55.4,55.4,100,30.16,6.0,East,4.6,-,N/A,Rain,Light Rain,100,2013-04-29 10:05:00
6:06 AM,55.4,55.4,100,30.16,7.0,East,4.6,-,N/A,Rain,Light Rain,100,2013-04-29 10:06:00
6:08 AM,55.4,55.4,100,30.16,6.0,East,4.6,-,N/A,Rain,Light Rain,100,2013-04-29 10:08:00
6:12 AM,55.4,55.4,100,30.16,6.0,East,5.8,-,N/A,Rain,Light Rain,90,2013-04-29 10:12:00
6:17 AM,55.4,55.4,100,30.16,5.0,ESE,6.9,-,N/A,Rain,Light Rain,110,2013-04-29 10:17:00
6:55 AM,54.7,54.7,100,30.16,5.0,ESE,8.1,-,0.06,Rain,Light Rain,110,2013-04-29 10:55:00
7:55 AM,55.2,55.2,100,30.16,5.0,ESE,11.5,-,0.04,Rain,Light Rain,110,2013-04-29 11:55:00
8:55 AM,55.4,55.4,100,30.15,6.0,ESE,12.7,-,0.07,Rain,Light Rain,110,2013-04-29 12:55:00
8:59 AM,55.4,55.4,100,30.15,6.0,ESE,9.2,16.1,N/A,Rain,Light Rain,120,2013-04-29 12:59:00
9:24 AM,55.4,55.4,100,30.15,6.0,ESE,12.7,18.4,N/A,Rain,Light Rain,120,2013-04-29 13:24:00
9:55 AM,56.3,56.3,100,30.14,7.0,ESE,10.4,-,0.02,Rain,Light Rain,120,2013-04-29 13:55:00
10:36 AM,57.2,57.2,100,30.14,6.0,ESE,9.2,-,N/A,Rain,Light Rain,110,2013-04-29 14:36:00
10:42 AM,57.2,57.2,100,30.14,9.0,ESE,5.8,-,N/A,,Overcast,110,2013-04-29 14:42:00
10:50 AM,57.2,57.2,100,30.14,10.0,SE,9.2,-,N/A,,Overcast,130,2013-04-29 14:50:00
10:53 AM,57.2,57.2,100,30.14,10.0,ESE,9.2,-,N/A,,Light Drizzle,120,2013-04-29 14:53:00
10:55 AM,57.9,57.9,100,30.14,10.0,ESE,10.4,-,0.02,,Light Drizzle,120,2013-04-29 14:55:00
11:06 AM,57.2,57.2,100,30.14,10.0,ESE,12.7,17.3,N/A,,Light Drizzle,110,2013-04-29 15:06:00
11:08 AM,57.2,57.2,100,30.14,10.0,SE,10.4,17.3,N/A,,Overcast,130,2013-04-29 15:08:00
11:25 AM,59.0,59.0,100,30.14,10.0,SE,10.4,-,N/A,Rain,Light Rain,130,2013-04-29 15:25:00
11:27 AM,59.0,59.0,100,30.14,10.0,SE,10.4,-,N/A,Rain,Light Rain,130,2013-04-29 15:27:00
11:55 AM,58.5,58.3,99,30.14,10.0,SE,11.5,-,0.01,Rain,Light Rain,130,2013-04-29 15:55:00
11:57 AM,59.0,59.0,100,30.14,10.0,SE,11.5,-,N/A,Rain,Light Rain,130,2013-04-29 15:57:00
11:59 AM,59.0,59.0,100,30.14,10.0,SE,13.8,-,N/A,,Light Drizzle,140,2013-04-29 15:59:00
12:00 PM,59.0,59.0,100,30.14,10.0,SE,17.3,-,N/A,,Light Drizzle,140,2013-04-29 16:00:00
12:02 PM,59.0,59.0,100,30.14,10.0,SE,12.7,-,N/A,,Light Drizzle,140,2013-04-29 16:02:00
12:08 PM,59.0,59.0,100,30.14,10.0,SE,9.2,-,N/A,,Overcast,130,2013-04-29 16:08:00
12:14 PM,59.0,59.0,100,30.14,10.0,SE,11.5,-,N/A,Rain,Light Rain,130,2013-04-29 16:14:00
12:24 PM,59.0,59.0,100,30.14,10.0,ESE,10.4,-,N/A,Rain,Light Rain,120,2013-04-29 16:24:00
12:34 PM,59.0,59.0,100,30.13,10.0,SE,12.7,20.7,N/A,Rain,Light Rain,140,2013-04-29 16:34:00
12:35 PM,59.0,59.0,100,30.13,10.0,SE,9.2,20.7,N/A,Rain,Light Rain,130,2013-04-29 16:35:00
12:45 PM,59.0,59.0,100,30.13,9.0,SE,10.4,-,N/A,Rain,Light Rain,130,2013-04-29 16:45:00
12:55 PM,58.6,58.3,99,30.13,8.0,ESE,9.2,-,0.01,Rain,Light Rain,120,2013-04-29 16:55:00
1:09 PM,59.0,59.0,100,30.13,6.0,ESE,10.4,17.3,N/A,Rain,Light Rain,110,2013-04-29 17:09:00
1:28 PM,57.2,57.2,100,30.13,6.0,ESE,9.2,-,N/A,Rain,Light Rain,120,2013-04-29 17:28:00
1:55 PM,57.7,57.7,100,30.12,6.0,SE,10.4,-,0.04,Rain,Light Rain,130,2013-04-29 17:55:00
2:10 PM,57.2,57.2,100,30.12,7.0,SE,12.7,-,N/A,Rain,Light Rain,130,2013-04-29 18:10:00
2:39 PM,57.2,57.2,100,30.12,7.0,SE,11.5,-,N/A,Rain,Light Rain,130,2013-04-29 18:39:00
2:45 PM,57.2,57.2,100,30.12,8.0,ESE,6.9,-,N/A,Rain,Light Rain,120,2013-04-29 18:45:00
2:55 PM,58.1,58.1,100,30.12,7.0,ESE,10.4,-,0.03,Rain,Light Rain,110,2013-04-29 18:55:00
3:01 PM,57.2,57.2,100,30.12,8.0,ESE,8.1,-,N/A,Rain,Light Rain,120,2013-04-29 19:01:00
3:55 PM,57.2,57.2,100,30.11,9.0,ESE,11.5,-,0.03,Rain,Light Rain,110,2013-04-29 19:55:00
4:38 PM,57.2,57.2,100,30.10,10.0,ESE,12.7,17.3,N/A,Rain,Light Rain,120,2013-04-29 20:38:00
4:47 PM,57.2,57.2,100,30.10,9.0,ESE,10.4,17.3,N/A,Rain,Light Rain,120,2013-04-29 20:47:00
4:55 PM,56.5,56.5,100,30.11,9.0,ESE,11.5,18.4,0.02,Rain,Light Rain,120,2013-04-29 20:55:00
5:00 PM,57.2,57.2,100,30.11,8.0,ESE,8.1,-,N/A,Rain,Light Rain,110,2013-04-29 21:00:00
5:25 PM,55.4,55.4,100,30.11,8.0,ESE,8.1,-,N/A,Rain,Light Rain,120,2013-04-29 21:25:00
5:55 PM,55.9,55.9,100,30.12,10.0,ESE,9.2,-,0.03,Rain,Light Rain,120,2013-04-29 21:55:00
6:14 PM,55.4,55.4,100,30.11,8.0,ESE,11.5,-,N/A,Rain,Light Rain,110,2013-04-29 22:14:00
6:40 PM,55.4,55.4,100,30.11,7.0,ESE,10.4,-,N/A,,Overcast,120,2013-04-29 22:40:00
6:55 PM,55.9,55.9,100,30.11,10.0,ESE,9.2,-,0.02,,Overcast,110,2013-04-29 22:55:00
7:55 PM,55.2,55.2,100,30.12,10.0,ESE,8.1,-,N/A,,Overcast,120,2013-04-29 23:55:00
8:09 PM,55.4,55.4,100,30.12,10.0,ESE,12.7,19.6,N/A,,Overcast,120,2013-04-30 00:09:00
8:26 PM,55.4,55.4,100,30.12,10.0,ESE,10.4,-,N/A,,Overcast,110,2013-04-30 00:26:00
8:55 PM,54.5,54.5,100,30.13,10.0,ESE,10.4,-,N/A,,Overcast,110,2013-04-30 00:55:00
9:50 PM,53.6,53.6,100,30.13,10.0,ESE,8.1,18.4,N/A,,Overcast,120,2013-04-30 01:50:00
9:55 PM,54.3,54.0,99,30.14,10.0,ESE,10.4,18.4,N/A,,Overcast,110,2013-04-30 01:55:00
10:55 PM,54.7,54.7,100,30.14,10.0,ESE,9.2,-,N/A,,Overcast,110,2013-04-30 02:55:00
11:01 PM,55.4,55.4,100,30.14,10.0,East,12.7,-,N/A,,Overcast,100,2013-04-30 03:01:00
11:55 PM,55.0,55.0,100,30.13,10.0,East,10.4,19.6,N/A,,Overcast,90,2013-04-30 03:55:00
11:56 PM,55.4,55.4,100,30.13,10.0,East,10.4,19.6,N/A,,Overcast,90,2013-04-30 03:56:00